Weather reports worldwide

Advertisment
Coleshill, United Kingdom (3535): temperature & dewpoint: 10.07.2018 17:00:00 - 16.07.2018 17:00:00 (BST)Coleshill, United Kingdom (3535): temperature -20cm & temperature -100cm: 10.07.2018 17:00:00 - 16.07.2018 17:00:00 (BST)Coleshill, United Kingdom (3535): wind speed: 10.07.2018 17:00:00 - 16.07.2018 17:00:00 (BST)Coleshill, United Kingdom (3535): wind direction: 10.07.2018 17:00:00 - 16.07.2018 17:00:00 (BST)Coleshill, United Kingdom (3535): reduced air pressure: 10.07.2018 17:00:00 - 16.07.2018 17:00:00 (BST)Coleshill, United Kingdom (3535): visibility: 10.07.2018 17:00:00 - 16.07.2018 17:00:00 (BST)Coleshill, United Kingdom (3535): precipitation: 10.07.2018 17:00:00 - 16.07.2018 17:00:00 (BST)
Date & Time tt [°C] td [°C] tt -20cm [°C] tt -100cm [°C] ff [km/h] ff [kn] dd ppp [hPa] vv [km] rr [mm]
16.07.2018 17:00:00 25,1 11,3 - - 15 8 SSW 1011,2 45 0,0
16.07.2018 16:00:00 26,0 11,6 - - 15 8 SSW 1011,4 35 0,0
16.07.2018 15:00:00 25,6 11,5 - - 11 6 SW 1012,0 50 0,0
16.07.2018 14:00:00 25,3 11,1 - - 13 7 SW 1012,4 17 0,0
16.07.2018 13:00:00 24,3 12,4 - - 11 6 S 1013,0 35 0,0
16.07.2018 12:00:00 23,1 12,0 - - 9 5 WSW 1013,3 45 0,0
16.07.2018 11:00:00 23,7 11,9 - - 9 5 W 1013,1 30 0,0
16.07.2018 10:00:00 22,9 11,4 21,5 18,5 9 5 SW 1013,3 29 0,0
16.07.2018 09:00:00 21,9 12,2 - - 9 5 WSW 1013,6 35 0,0
16.07.2018 08:00:00 19,5 12,4 - - 9 5 WSW 1013,7 40 0,0
16.07.2018 07:00:00 18,1 12,7 - - 4 2 S 1013,7 30 0,0
16.07.2018 06:00:00 13,9 11,2 - - 4 2 S 1014,0 35 0,0
16.07.2018 05:00:00 12,9 10,6 - - 4 2 S 1014,1 35 0,0
16.07.2018 04:00:00 13,6 10,9 - - 4 2 S 1014,3 40 0,0
16.07.2018 03:00:00 14,3 11,1 - - 4 2 S 1014,5 50 0,0
16.07.2018 02:00:00 14,0 10,4 - - 2 1 SSE 1014,7 40 0,0
16.07.2018 01:00:00 14,7 10,1 - - 0 0 N 1014,8 35 0,0
16.07.2018 00:00:00 17,7 10,1 - - 2 1 SW 1014,8 15 0,0
15.07.2018 23:00:00 19,6 10,1 - - 4 2 WSW 1014,6 50 0,0
15.07.2018 22:00:00 21,3 9,7 - - 5 3 WSW 1014,2 45 0,0
15.07.2018 21:00:00 23,5 10,0 - - 5 3 SW 1013,6 50 0,0
15.07.2018 20:00:00 25,7 10,2 - - 9 5 WSW 1013,2 35 0,0
15.07.2018 19:00:00 26,8 9,9 - - 11 6 WSW 1013,3 40 0,0
15.07.2018 18:00:00 25,9 9,5 - - 5 3 WSW 1013,7 50 0,0
15.07.2018 17:00:00 27,1 9,5 - - 8 4 SSW 1014,0 35 0,0
15.07.2018 16:00:00 27,0 9,5 - - 11 6 WSW 1014,5 45 0,0
15.07.2018 15:00:00 26,3 10,9 - - 9 5 SW 1014,7 50 0,0
15.07.2018 14:00:00 25,6 11,1 - - 9 5 WSW 1015,1 45 0,0
15.07.2018 13:00:00 24,5 11,3 - - 8 4 WSW 1015,7 30 0,0
15.07.2018 12:00:00 23,3 12,1 - - 11 6 SW 1016,1 35 0,0
15.07.2018 11:00:00 22,1 11,8 - - 8 4 SW 1016,4 30 0,0
15.07.2018 10:00:00 21,0 12,8 21,2 18,5 5 3 WSW 1016,7 30 0,0
15.07.2018 09:00:00 19,4 12,8 - - 8 4 WSW 1017,1 27 0,0
15.07.2018 08:00:00 18,1 12,7 - - 4 2 SSW 1017,2 40 0,0
15.07.2018 07:00:00 15,0 12,2 - - 4 2 SW 1017,3 26 0,0
15.07.2018 06:00:00 13,3 11,9 - - 4 2 SW 1017,3 35 0,0
15.07.2018 05:00:00 11,9 10,1 - - 5 3 WNW 1017,4 45 0,0
15.07.2018 04:00:00 13,7 11,6 - - 5 3 WNW 1017,6 45 0,0
15.07.2018 03:00:00 14,2 11,1 - - 2 1 WSW 1017,6 50 0,0
15.07.2018 02:00:00 15,3 10,6 - - 2 1 N 1017,7 50 0,0
15.07.2018 01:00:00 17,4 11,7 - - 9 5 WNW 1017,6 50 0,0
15.07.2018 00:00:00 17,6 12,2 - - 8 4 NW 1017,8 40 0,0
14.07.2018 23:00:00 19,0 10,1 - - 5 3 SW 1017,4 50 0,0
14.07.2018 22:00:00 20,7 9,7 - - 9 5 S 1017,3 50 0,0
14.07.2018 21:00:00 23,0 9,6 - - 8 4 SSW 1016,9 40 0,0
14.07.2018 20:00:00 24,6 11,0 - - 8 4 SW 1016,8 35 0,0
14.07.2018 19:00:00 25,4 11,5 - - 9 5 SW 1016,9 35 0,0
14.07.2018 18:00:00 25,1 11,4 - - 11 6 SSW 1017,3 35 0,0
14.07.2018 17:00:00 26,6 12,1 - - 9 5 SSW 1017,5 40 0,0
14.07.2018 16:00:00 25,5 12,3 - - 11 6 SW 1017,9 30 0,0
14.07.2018 15:00:00 25,6 13,0 - - 9 5 SW 1018,4 35 0,0
14.07.2018 14:00:00 24,8 12,3 - - 11 6 SSW 1019,0 17 0,0
14.07.2018 13:00:00 23,4 13,0 - - 9 5 SSW 1019,5 18 0,0
14.07.2018 12:00:00 23,6 13,4 - - 11 6 S 1019,8 29 0,0
14.07.2018 11:00:00 21,3 14,3 - - 4 2 SW 1020,2 13 0,0
14.07.2018 10:00:00 20,9 14,9 21,0 18,4 4 2 SE 1020,5 9 0,0
14.07.2018 09:00:00 18,5 15,5 - - 5 3 NNE 1020,8 5 0,0
14.07.2018 08:00:00 16,8 15,7 - - 2 1 E 1021,0 3,7 0,0
14.07.2018 07:00:00 15,3 15,1 - - 4 2 ESE 1020,9 2,2 0,0
14.07.2018 06:00:00 14,5 14,3 - - 4 2 NNW 1020,8 2,1 0,0
14.07.2018 05:00:00 12,0 11,0 - - 5 3 NNE 1020,9 7 0,0
14.07.2018 04:00:00 13,3 12,3 - - 4 2 S 1021,0 11 0,0
14.07.2018 03:00:00 13,9 12,6 - - 4 2 SE 1021,0 15 0,0
14.07.2018 02:00:00 14,5 13,1 - - 4 2 ENE 1021,1 16 0,0
14.07.2018 01:00:00 15,7 13,7 - - 4 2 ENE 1021,3 18 0,0
14.07.2018 00:00:00 17,4 14,1 - - 2 1 NNE 1021,3 27 0,0
13.07.2018 23:00:00 18,2 13,9 - - 2 1 NE 1021,3 35 0,0
13.07.2018 22:00:00 18,9 13,9 - - 4 2 NE 1021,2 35 0,0
13.07.2018 21:00:00 19,8 13,9 - - 2 1 WNW 1020,6 40 0,0
13.07.2018 20:00:00 20,2 13,5 - - 8 4 WNW 1020,4 35 0,0
13.07.2018 19:00:00 20,5 13,8 - - 13 7 WNW 1020,3 35 0,0
13.07.2018 18:00:00 21,4 13,1 - - 15 8 SW 1020,4 35 0,0
13.07.2018 17:00:00 25,9 11,4 - - 8 4 ESE 1020,0 45 0,0
13.07.2018 16:00:00 25,5 11,3 - - 11 6 E 1020,4 30 0,0
13.07.2018 15:00:00 24,2 12,4 - - 8 4 E 1021,0 29 0,0
13.07.2018 14:00:00 24,5 13,1 - - 8 4 E 1021,5 45 0,0
13.07.2018 13:00:00 22,7 13,7 - - 8 4 SE 1022,3 29 0,0
13.07.2018 12:00:00 20,1 13,1 - - 8 4 E 1022,8 30 0,0
13.07.2018 11:00:00 18,6 12,6 - - 9 5 ESE 1022,9 30 0,0
13.07.2018 10:00:00 17,2 12,1 21,0 18,4 8 4 ESE 1022,9 29 0,0
13.07.2018 09:00:00 16,1 11,7 - - 9 5 E 1022,9 40 0,0
13.07.2018 08:00:00 15,2 11,5 - - 8 4 E 1022,9 29 0,0
13.07.2018 07:00:00 14,5 11,4 - - 8 4 E 1022,7 40 0,0
13.07.2018 06:00:00 14,0 11,1 - - 5 3 NE 1022,8 35 0,0
13.07.2018 05:00:00 14,1 11,2 - - 4 2 E 1022,8 30 0,0
13.07.2018 04:00:00 14,4 11,3 - - 4 2 ENE 1022,9 35 0,0
13.07.2018 03:00:00 14,7 11,2 - - 5 3 ESE 1022,9 40 0,0
13.07.2018 02:00:00 15,0 11,3 - - 5 3 ESE 1023,0 35 0,0
13.07.2018 01:00:00 15,4 11,7 - - 9 5 ESE 1022,8 45 0,0
13.07.2018 00:00:00 16,4 11,9 - - 9 5 E 1022,6 50 0,0
12.07.2018 23:00:00 18,2 12,7 - - 8 4 E 1022,3 35 0,0
12.07.2018 22:00:00 19,4 12,1 - - 4 2 E 1021,7 40 0,0
12.07.2018 21:00:00 20,7 12,2 - - 8 4 E 1021,2 40 0,0
12.07.2018 20:00:00 21,6 12,1 - - 8 4 E 1021,1 35 0,0
12.07.2018 19:00:00 22,4 11,9 - - 8 4 NE 1020,9 30 0,0
12.07.2018 18:00:00 23,5 12,0 - - 9 5 ESE 1020,7 21 0,0
12.07.2018 17:00:00 23,3 11,4 - - 2 1 N 1021,0 35 0,0
12.07.2018 16:00:00 23,6 12,6 - - 8 4 NNE 1021,3 26 0,0
12.07.2018 15:00:00 23,2 13,1 - - 9 5 E 1021,7 17 0,0
12.07.2018 14:00:00 21,4 13,2 - - 9 5 NNE 1022,3 15 0,0
12.07.2018 13:00:00 19,2 12,9 - - 8 4 NE 1022,8 11 0,0
12.07.2018 12:00:00 16,9 12,6 - - 8 4 E 1023,2 11 0,0
12.07.2018 11:00:00 16,1 12,6 - - 8 4 NE 1023,0 20 0,0
12.07.2018 10:00:00 15,4 12,3 21,2 18,2 5 3 E 1023,0 17 0,0
12.07.2018 09:00:00 13,7 11,6 - - 4 2 ENE 1023,0 11 0,0
12.07.2018 08:00:00 12,6 11,4 - - 8 4 NE 1023,0 9 0,0
12.07.2018 07:00:00 12,2 11,1 - - 9 5 NE 1022,8 8 0,0
12.07.2018 06:00:00 12,6 11,3 - - 5 3 E 1022,3 9 0,0
12.07.2018 05:00:00 13,1 11,5 - - 9 5 NE 1022,3 12 0,0
12.07.2018 04:00:00 13,3 11,5 - - 8 4 E 1022,1 16 0,0
12.07.2018 03:00:00 14,1 11,7 - - 9 5 E 1022,0 21 0,0
12.07.2018 02:00:00 15,3 12,1 - - 8 4 ENE 1022,0 28 0,0
12.07.2018 01:00:00 15,9 12,5 - - 5 3 ENE 1021,8 28 0,0
12.07.2018 00:00:00 16,5 12,8 - - 5 3 ENE 1021,6 21 0,0
11.07.2018 23:00:00 17,2 12,6 - - 5 3 E 1021,5 40 0,0
11.07.2018 22:00:00 18,7 12,1 - - 8 4 E 1021,1 35 0,0
11.07.2018 21:00:00 20,4 11,7 - - 4 2 E 1020,4 30 0,0
11.07.2018 20:00:00 22,2 11,2 - - 5 3 E 1020,2 50 0,0
11.07.2018 19:00:00 23,2 11,4 - - 9 5 ENE 1020,2 23 0,0
11.07.2018 18:00:00 23,6 11,2 - - 8 4 E 1020,0 26 0,0
11.07.2018 17:00:00 23,2 10,0 - - 8 4 ENE 1020,2 35 0,0
11.07.2018 16:00:00 23,4 10,1 - - 5 3 E 1020,6 28 0,0
11.07.2018 15:00:00 25,8 11,2 - - 5 3 E 1020,8 30 0,0
11.07.2018 14:00:00 22,6 8,8 - - 9 5 NNW 1021,4 35 0,0
11.07.2018 13:00:00 22,9 11,0 - - 9 5 NE 1021,8 28 0,0
11.07.2018 12:00:00 21,0 11,3 - - 11 6 N 1022,3 27 0,0
11.07.2018 11:00:00 19,1 10,8 - - 8 4 NNE 1022,7 15 0,0
11.07.2018 10:00:00 16,9 10,9 21,0 18,2 8 4 N 1023,0 35 0,0
11.07.2018 09:00:00 15,2 11,3 - - 8 4 N 1023,3 14 0,0
11.07.2018 08:00:00 13,1 10,8 - - 8 4 ENE 1023,6 9 0,0
11.07.2018 07:00:00 12,4 11,0 - - 5 3 N 1023,5 15 0,0
11.07.2018 06:00:00 10,3 9,9 - - 4 2 N 1023,4 9 0,0
11.07.2018 05:00:00 10,0 9,2 - - 5 3 N 1023,4 10 0,0
11.07.2018 04:00:00 10,7 9,7 - - 2 1 NNE 1023,5 16 0,0
11.07.2018 03:00:00 11,6 10,2 - - 2 1 NNE 1023,6 21 0,0
11.07.2018 02:00:00 12,0 9,8 - - 5 3 NNE 1023,8 30 0,0
11.07.2018 01:00:00 14,2 10,8 - - 4 2 E 1023,8 40 0,0
11.07.2018 00:00:00 15,4 11,2 - - 5 3 ENE 1023,7 40 0,0
10.07.2018 23:00:00 15,7 10,2 - - 4 2 E 1023,4 35 0,0
10.07.2018 22:00:00 17,3 9,3 - - 2 1 NE 1023,1 40 0,0
10.07.2018 21:00:00 20,2 9,5 - - 5 3 NE 1022,7 40 0,0
10.07.2018 20:00:00 21,3 9,0 - - 8 4 NE 1022,7 30 0,0
10.07.2018 19:00:00 22,2 9,2 - - 5 3 ENE 1022,5 40 0,0
10.07.2018 18:00:00 22,2 8,5 - - 9 5 NNE 1022,6 35 0,0
10.07.2018 17:00:00 22,6 8,1 - - 13 7 N 1022,9 30 0,0

tt = temperature
td = dewpoint
tt -20cm = temperature -20cm
tt -100cm = temperature -100cm
ff = wind speed
dd = wind direction
ppp = reduced air pressure
vv = visibility
rr = precipitation

Next stations